Flag for U.S.A. Weather past 2 weeks in Yonkers, New York, U.S.A.

Now
77 °F

Scattered clouds.


Feels Like: 79 °F
Forecast: 60 / 78 °F
Wind: 9 mph from Southeast

Location: Teterboro Airport

Current Time: Aug 30, 2014 at 1:03:20 PM

Latest Report: Aug 30, 2014 at 11:51 AM


Visibility: 10 mi

Pressure: 30.23 "Hg

Humidity: 48%

Dew point: 56 °F

Location of YonkersLocation

Historic Weather in Yonkers — Graph

°F

Yonkers temperature yesterday

Maximum temperature yesterday: 79 °F (at 1:51 PM)
Minimum temperature yesterday: 59 °F (at 5:51 AM)
Average temperature yesterday: 69 °F

Past Weeks' High & Low Weather Summary

 TemperatureHumidityPressure
High92 °F (Aug 27, 4:51 PM)90% (Aug 22, 4:51 AM)30.27 "Hg (Aug 22, 4:51 AM)
Low59 °F (Aug 16, 5:51 AM)31% (Aug 16, 12:51 PM)29.80 "Hg (Aug 17, 3:51 PM)
Average73 °F59%30.01 "Hg
* Reported Aug 15 11:51 AM — Aug 30 11:51 AM, Yonkers, Weather by CustomWeather, © 2014

Note: Actual official high and low records may vary slightly from our data, if they occured in-between our weather recording intervals... More about our weather records

Advertising

Yonkers weather history for previous 24 hours

 ConditionsComfort  
Time TempWeatherWind HumidityBarometerVisibility
11:51 AM
Aug 30
77 °FScattered clouds.9 mph48%30.23 "Hg10 mi
10:51 AM75 °FPassing clouds.9 mph52%30.24 "Hg10 mi
9:51 AM73 °FSunny.8 mph55%30.25 "Hg10 mi
8:51 AM70 °FSunny.No wind61%30.26 "Hg10 mi
7:51 AM65 °FSunny.No wind73%30.26 "Hg10 mi
6:51 AM59 °FClear.3 mph84%30.27 "Hg10 mi
5:51 AM59 °FClear.No wind84%30.26 "Hg10 mi
4:51 AM60 °FPassing clouds.3 mph80%30.25 "Hg10 mi
3:51 AM60 °FPassing clouds.3 mph80%30.24 "Hg10 mi
2:51 AM64 °FClear.No wind70%30.24 "Hg10 mi
1:51 AM64 °FClear.No wind70%30.24 "Hg10 mi
12:51 AM63 °FClear.No wind70%30.24 "Hg10 mi
11:51 PM
Aug 29
68 °FClear.No wind57%30.24 "Hg10 mi
10:51 PM69 °FClear.No wind59%30.23 "Hg10 mi
9:51 PM69 °FClear.5 mph59%30.23 "Hg10 mi
8:51 PM70 °FClear.6 mph55%30.21 "Hg10 mi
7:51 PM72 °FSunny.6 mph52%30.18 "Hg10 mi
6:51 PM74 °FSunny.10 mph46%30.17 "Hg10 mi
5:51 PM76 °FSunny.7 mph43%30.16 "Hg10 mi
4:51 PM79 °FSunny.10 mph36%30.14 "Hg10 mi
2:51 PM79 °FSunny.3 mph35%30.15 "Hg10 mi
1:51 PM79 °FSunny.8 mph35%30.16 "Hg10 mi
Weather by CustomWeather, © 2014

See weather overviewHow to use our weather pages